Regional Weather Roundup
Issued by NWS

Home | Current Version | Previous Version | Graphics & Text | Print | Product List | Glossary On
Versions: 1 2 3 4 5 6 7 8 9 10 11 12 13 14 15 16 17 18 19 20 21 22 23 24 25 26 27
000
ASUS45 KSLC 271510
RWRUT

UTAH REGIONAL WEATHER ROUNDUP
NATIONAL WEATHER SERVICE SALT LAKE CITY UT
900 AM MDT FRI MAY 27 2016

UTZ001>011-023>025-271600-

NORTHERN UTAH

CITY           SKY/WX    TMP DP  RH WIND       PRES   REMARKS
BRIGHAM CITY     N/A     55  46  72 CALM      29.99S
HILL AFB       MOSUNNY   52  41  64 E12       29.99S
LOGAN          SUNNY     51  45  79 CALM      29.99S
OGDEN          MOSUNNY   57  43  59 S8        29.98R
PROVO AIRPORT  MOSUNNY   55  37  50 SE7       30.01S
SALT LAKE CITY PTSUNNY   60  41  49 SE7       29.98R
VERNAL         SUNNY     57  36  45 VRB3      29.98R
WENDOVER       SUNNY     61  37  41 S5        29.98S
HEBER CITY     LGT RAIN  45  37  76 CALM      30.02F
WEST JORDAN    SUNNY     57  43  58 S5        30.00S

$$

UTZ012>022-026-027-271600-

SOUTHERN/CENTRAL UTAH

CITY           SKY/WX    TMP DP  RH WIND       PRES   REMARKS
BLANDING       SUNNY     54  35  48 CALM      30.06S
BRYCE CANYON   SUNNY     50  34  54 NW12      30.09F
CEDAR CITY     PTSUNNY   50  37  61 VRB3      30.04S
DELTA          SUNNY     54  37  54 S5        30.02S
HANKSVILLE     SUNNY     59  32  36 CALM      29.98R
MILFORD        MOSUNNY   52  42  69 S8        30.02S
MOAB/CYNLANDS  SUNNY     60  35  39 NW6       29.93F
PRICE          SUNNY     58  33  39 N9        29.99R
ST GEORGE      MOSUNNY   63  34  34 S5        29.99S
KANAB          MOSUNNY   57  36  44 CALM      30.06S

$$

REGIONAL REPORTS     COLORADO/ARIZONA

CITY           SKY/WX    TMP DP  RH WIND       PRES   REMARKS
CRAIG, CO      CLOUDY    50  41  71 VRB3      30.00S
GRAND JUNCTION PTSUNNY   59  36  42 CALM      29.95R
RIFLE          CLOUDY    55  39  54 NE3       29.97S
MONTROSE       PTSUNNY   53  37  54 CALM      30.01R
CORTEZ         SUNNY     54  35  48 CALM      29.98F
PAGE, AZ       SUNNY     64  35  34 E3        29.97R
GRAND CANYON   SUNNY     56  31  38 W7        30.09S
KINGMAN        SUNNY     70  31  23 CALM      29.96R
FLAGSTAFF      SUNNY     53  29  39 VRB7      30.10R

$$

REGIONAL REPORTS    NEVADA/IDAHO/WYOMING

CITY           SKY/WX    TMP DP  RH WIND       PRES   REMARKS
LAS VEGAS, NV  MOSUNNY   73  35  25 CALM      29.87R
ELY            SUNNY     49  37  63 S8        30.07S
ELKO           MOSUNNY   49  42  77 CALM      30.02S
POCATELLO, ID  SUNNY     58  39  49 SW18      29.98R
BURLEY         SUNNY     56  40  55 W13G25    29.97R
EVANSTON, WY   CLOUDY    44  36  73 S3        30.05S
ROCK SPRINGS   CLOUDY    48  42  80 W6        30.03R
KEMMERER         N/A     45  36  70 W6        30.05S

$$




USA.gov is the U.S. government's official web portal to all federal, state and local government web resources and services.